CZ-6A DEB

Satellite information

Favourite Embed

Satellite Type and Status

DEBRISIN ORBIT

Key statistics

Satellite CZ-6A DEB at a glance.

Uptime

1129

Days in orbit

Revolutions

≈ 14.7

Per day

Orbit

SSO

Sun Synchronous Orbit

Inclination

98.6

Latest

Satellite identification and parameters

Extended collection of information and parameters for CZ-6A DEB.

Object identification

Identified? True

Debris? True

Object name: CZ-6A DEB

International designator: 2022-151YH

Object number (NORAD): 55535

Object ID (CCSDS): 55535

Country: PEOPLES REPUBLIC OF CHINA (PRC)

Current information (Y/N): Y

RCS size: SMALL

Orbital parameters

Period: 98.077 minutes

Inclination: 98.6447 deg

SMA: 7044.85 km

Apoapsis: 722.455 km

Periapsis: 610.976 km

RAAN: 40.556 deg

Eccentricy: 0.00791208

Argument of periapsis: 136.6811 deg

Mean anomaly: 224.065 deg

Mean motion: 14.68233475 rev/day

Mean motion (dot): 0.00022324 rev/day2

B* drag term: 0.0036937859 1/REarth

Two-line elements (TLE)

Creation date: Dec. 13, 2025, 5:47 p.m.

Reference frame: TEME

Reference center: EARTH

Epoch: Dec. 13, 2025, 2:42 a.m. UTC

TLE line 0: 0 CZ-6A DEB

TLE line 1: 1 55535U 22151YH 25347.11316478 .00022324 00000-0 36938-2 0 9990

TLE line 2: 2 55535 98.6447 40.5560 0079121 136.6811 224.0650 14.68233475157835

Live tracking on map

Real-time ground track for satellite CZ-6A DEB.

In-orbit conjunctions

A list of the most updated potential collisions computed for object CZ-6A DEB.

Target Orbit TCA Probability of collision Miss distance Type
TITAN 3C TRANSTAGE DEB LEO 2025-01-08 00:21:36 0.0001233979 250.0 (m) DEBRIS
COSMOS 1275 DEB LEO 2024-08-31 08:58:56 0.0001027795 113.0 (m) DEBRIS

Associated space launch

Chinese satellite reported for atmospheric/ocean/environmental/spatial parameter research purposes, details TBD.

CZ-6A DEB was lifted into orbit during the mission ‘Long March 6A | Yunhai 3’, on board a Long March 6A space rocket.

The launch took place on Nov. 11, 2022, 10:52 p.m. from Launch Complex 9A.

For more information about the launch, click the button.

Launch to space Long March 6A | Yunhai 3
Long March 6A | Yunhai 3

Agency: N/A

Status: Launch Successful

Launch date: Nov. 11, 2022, 10:52 p.m. UTC

Rocket: Long March 6A

Launch pad: Launch Complex 9A

Location: Taiyuan Satellite Launch Center, People's Republic of China

...

Latest news about this satellite

There are no fresh news available about this satellite. Check back as we update our databases every day.


Newsletter sign-up

Weekly statistics, charts and insights to help you stay on top of the space industry.